Time,TemperatureF,DewpointF,PressureIn,WindDirection,WindDirectionDegrees,WindSpeedMPH,WindSpeedGustMPH,Humidity,HourlyPrecipIn,Conditions,Clouds,dailyrainin,SoftwareType,DateUTC
2013-03-28 00:03:00,35.0,25.0,-100.00,West,280,7.0,12.0,68,0.00,,,-99.99,,2013-03-28 04:03:00,
2013-03-28 00:12:00,35.0,25.0,-100.00,WNW,290,6.0,12.0,68,0.00,,,-99.99,,2013-03-28 04:12:00,
2013-03-28 00:23:00,35.0,25.0,-100.00,WNW,285,8.0,13.0,68,0.00,,,-99.99,,2013-03-28 04:23:00,
2013-03-28 00:32:00,34.0,25.0,-100.00,West,280,7.0,12.0,68,0.00,,,-99.99,,2013-03-28 04:32:00,
2013-03-28 00:42:00,34.0,25.0,-100.00,WNW,285,7.0,13.0,69,0.00,,,-99.99,,2013-03-28 04:42:00,
2013-03-28 00:52:00,34.0,25.0,-100.00,NW,305,9.0,14.0,69,0.00,,,-99.99,,2013-03-28 04:52:00,
2013-03-28 01:02:00,34.0,25.0,-100.00,WNW,285,10.0,16.0,69,0.00,,,-99.99,,2013-03-28 05:02:00,
2013-03-28 01:12:00,34.0,25.0,-100.00,WNW,295,8.0,14.0,69,0.00,,,-99.99,,2013-03-28 05:12:00,
2013-03-28 01:22:00,34.0,25.0,-100.00,WNW,285,9.0,17.0,69,0.00,,,-99.99,,2013-03-28 05:22:00,
2013-03-28 01:32:00,34.0,25.0,-100.00,WNW,300,9.0,14.0,69,0.00,,,-99.99,,2013-03-28 05:32:00,
2013-03-28 01:42:00,34.0,25.0,-100.00,WNW,285,7.0,14.0,69,0.00,,,-99.99,,2013-03-28 05:42:00,
2013-03-28 01:52:00,34.0,25.0,-100.00,WNW,285,9.0,15.0,69,0.00,,,-99.99,,2013-03-28 05:52:00,
2013-03-28 02:02:00,33.0,24.0,-100.00,NW,305,9.0,16.0,69,0.00,,,-99.99,,2013-03-28 06:02:00,
2013-03-28 02:12:00,34.0,24.0,-100.00,NW,305,11.0,16.0,68,0.00,,,-99.99,,2013-03-28 06:12:00,
2013-03-28 02:22:00,33.0,24.0,-100.00,WNW,295,10.0,16.0,67,0.00,,,-99.99,,2013-03-28 06:22:00,
2013-03-28 02:32:00,33.0,24.0,-100.00,NW,305,9.0,12.0,68,0.00,,,-99.99,,2013-03-28 06:32:00,
2013-03-28 02:42:00,33.0,23.0,-100.00,WNW,285,9.0,15.0,67,0.00,,,-99.99,,2013-03-28 06:42:00,
2013-03-28 02:52:00,33.0,23.0,-100.00,WNW,285,8.0,14.0,67,0.00,,,-99.99,,2013-03-28 06:52:00,
2013-03-28 03:02:00,33.0,23.0,-100.00,West,275,6.0,11.0,67,0.00,,,-99.99,,2013-03-28 07:02:00,
2013-03-28 03:12:00,32.0,23.0,-100.00,WNW,290,7.0,10.0,69,0.00,,,-99.99,,2013-03-28 07:12:00,
2013-03-28 03:22:00,32.0,23.0,-100.00,WNW,300,8.0,12.0,68,0.00,,,-99.99,,2013-03-28 07:22:00,
2013-03-28 03:32:00,32.0,23.0,-100.00,WNW,295,7.0,11.0,68,0.00,,,-99.99,,2013-03-28 07:32:00,
2013-03-28 03:42:00,32.0,23.0,-100.00,WNW,285,7.0,12.0,68,0.00,,,-99.99,,2013-03-28 07:42:00,
2013-03-28 03:52:00,32.0,23.0,-100.00,West,280,7.0,12.0,68,0.00,,,-99.99,,2013-03-28 07:52:00,
2013-03-28 04:02:00,32.0,23.0,-100.00,West,280,9.0,12.0,68,0.00,,,-99.99,,2013-03-28 08:02:00,
2013-03-28 04:12:00,32.0,23.0,-100.00,WNW,295,9.0,14.0,69,0.00,,,-99.99,,2013-03-28 08:12:00,
2013-03-28 04:21:00,32.0,23.0,-100.00,WNW,290,8.0,14.0,69,0.00,,,-99.99,,2013-03-28 08:21:00,
2013-03-28 04:33:00,31.0,23.0,-100.00,WNW,290,6.0,11.0,70,0.00,,,-99.99,,2013-03-28 08:33:00,
2013-03-28 04:42:00,31.0,23.0,-100.00,WNW,290,8.0,12.0,70,0.00,,,-99.99,,2013-03-28 08:42:00,
2013-03-28 04:52:00,31.0,23.0,-100.00,WNW,295,8.0,14.0,71,0.00,,,-99.99,,2013-03-28 08:52:00,
2013-03-28 05:02:00,31.0,23.0,-100.00,WNW,300,7.0,12.0,72,0.00,,,-99.99,,2013-03-28 09:02:00,
2013-03-28 05:12:00,31.0,23.0,-100.00,West,280,9.0,14.0,72,0.00,,,-99.99,,2013-03-28 09:12:00,
2013-03-28 05:22:00,31.0,23.0,-100.00,WNW,290,9.0,14.0,72,0.00,,,-99.99,,2013-03-28 09:22:00,
2013-03-28 05:32:00,31.0,23.0,-100.00,WNW,300,6.0,13.0,73,0.00,,,-99.99,,2013-03-28 09:32:00,
2013-03-28 05:42:00,30.0,23.0,-100.00,WNW,290,8.0,12.0,73,0.00,,,-99.99,,2013-03-28 09:42:00,
2013-03-28 05:52:00,30.0,23.0,-100.00,WNW,285,7.0,12.0,73,0.00,,,-99.99,,2013-03-28 09:52:00,
2013-03-28 06:03:00,30.0,23.0,-100.00,WNW,300,7.0,12.0,73,0.00,,,-99.99,,2013-03-28 10:03:00,
2013-03-28 06:12:00,30.0,23.0,-100.00,WNW,295,5.0,12.0,74,0.00,,,-99.99,,2013-03-28 10:12:00,
2013-03-28 06:22:00,30.0,23.0,-100.00,WNW,285,6.0,15.0,73,0.00,,,-99.99,,2013-03-28 10:22:00,
2013-03-28 06:33:00,30.0,23.0,-100.00,WNW,290,6.0,11.0,74,0.00,,,-99.99,,2013-03-28 10:33:00,
2013-03-28 06:42:00,30.0,23.0,-100.00,WNW,290,7.0,12.0,75,0.00,,,-99.99,,2013-03-28 10:42:00,
2013-03-28 06:52:00,29.0,23.0,-100.00,WNW,295,6.0,12.0,75,0.00,,,-99.99,,2013-03-28 10:52:00,
2013-03-28 07:02:00,29.0,23.0,-100.00,WNW,295,6.0,11.0,75,0.00,,,-99.99,,2013-03-28 11:02:00,
2013-03-28 07:12:00,29.0,22.0,-100.00,WNW,300,7.0,11.0,75,0.00,,,-99.99,,2013-03-28 11:12:00,
2013-03-28 07:23:00,29.0,22.0,-100.00,WNW,295,6.0,11.0,75,0.00,,,-99.99,,2013-03-28 11:23:00,
2013-03-28 07:32:00,29.0,22.0,-100.00,West,280,5.0,12.0,75,0.00,,,-99.99,,2013-03-28 11:32:00,
2013-03-28 07:42:00,29.0,22.0,-100.00,NW,305,6.0,9.0,75,0.00,,,-99.99,,2013-03-28 11:42:00,
2013-03-28 07:52:00,29.0,22.0,-100.00,WNW,300,7.0,11.0,75,0.00,,,-99.99,,2013-03-28 11:52:00,
2013-03-28 08:02:00,29.0,22.0,-100.00,WNW,285,6.0,9.0,76,0.00,,,-99.99,,2013-03-28 12:02:00,
2013-03-28 08:12:00,29.0,22.0,-100.00,West,275,6.0,10.0,75,0.00,,,-99.99,,2013-03-28 12:12:00,
2013-03-28 08:22:00,29.0,22.0,-100.00,WNW,285,6.0,9.0,74,0.00,,,-99.99,,2013-03-28 12:22:00,
2013-03-28 08:32:00,29.0,22.0,-100.00,WNW,300,7.0,11.0,73,0.00,,,-99.99,,2013-03-28 12:32:00,
2013-03-28 08:42:00,29.0,22.0,-100.00,WNW,290,4.0,12.0,72,0.00,,,-99.99,,2013-03-28 12:42:00,
2013-03-28 08:52:00,30.0,22.0,-100.00,WNW,290,5.0,12.0,71,0.00,,,-99.99,,2013-03-28 12:52:00,
2013-03-28 09:02:00,30.0,22.0,-100.00,WNW,300,7.0,12.0,70,0.00,,,-99.99,,2013-03-28 13:02:00,
2013-03-28 09:12:00,31.0,22.0,-100.00,WNW,285,9.0,14.0,69,0.00,,,-99.99,,2013-03-28 13:12:00,
2013-03-28 09:22:00,31.0,21.0,-100.00,WNW,285,6.0,16.0,67,0.00,,,-99.99,,2013-03-28 13:22:00,
2013-03-28 09:32:00,32.0,22.0,-100.00,NW,310,9.0,16.0,66,0.00,,,-99.99,,2013-03-28 13:32:00,
2013-03-28 09:42:00,32.0,22.0,-100.00,WNW,295,7.0,14.0,65,0.00,,,-99.99,,2013-03-28 13:42:00,
2013-03-28 09:52:00,33.0,23.0,-100.00,NW,305,7.0,12.0,65,0.00,,,-99.99,,2013-03-28 13:52:00,
2013-03-28 10:02:00,34.0,23.0,-100.00,NW,310,9.0,14.0,65,0.00,,,-99.99,,2013-03-28 14:02:00,
2013-03-28 10:12:00,33.0,22.0,-100.00,NW,310,11.0,17.0,62,0.00,,,-99.99,,2013-03-28 14:12:00,
2013-03-28 10:22:00,35.0,23.0,-100.00,West,280,5.0,13.0,61,0.00,,,-99.99,,2013-03-28 14:22:00,
2013-03-28 10:33:00,35.0,23.0,-100.00,West,280,7.0,14.0,61,0.00,,,-99.99,,2013-03-28 14:33:00,
2013-03-28 10:42:00,36.0,22.0,-100.00,NW,305,12.0,17.0,58,0.00,,,-99.99,,2013-03-28 14:42:00,
2013-03-28 10:52:00,37.0,24.0,-100.00,NW,325,11.0,17.0,61,0.00,,,-99.99,,2013-03-28 14:52:00,
2013-03-28 11:02:00,36.0,22.0,-100.00,NW,320,9.0,16.0,56,0.00,,,-99.99,,2013-03-28 15:02:00,
2013-03-28 11:12:00,37.0,23.0,-100.00,WNW,295,11.0,16.0,55,0.00,,,-99.99,,2013-03-28 15:12:00,
2013-03-28 11:22:00,38.0,24.0,-100.00,NW,305,9.0,16.0,55,0.00,,,-99.99,,2013-03-28 15:22:00,
2013-03-28 11:33:00,38.0,23.0,-100.00,NW,315,10.0,17.0,55,0.00,,,-99.99,,2013-03-28 15:33:00,
2013-03-28 11:43:00,39.0,23.0,-100.00,WNW,295,6.0,14.0,52,0.00,,,-99.99,,2013-03-28 15:43:00,
2013-03-28 11:52:00,39.0,23.0,-100.00,NW,305,14.0,19.0,53,0.00,,,-99.99,,2013-03-28 15:52:00,
2013-03-28 12:03:00,39.0,24.0,-100.00,WNW,285,8.0,19.0,54,0.00,,,-99.99,,2013-03-28 16:03:00,
2013-03-28 12:12:00,39.0,25.0,-100.00,NW,305,9.0,19.0,56,0.00,,,-99.99,,2013-03-28 16:12:00,
2013-03-28 12:23:00,40.0,24.0,-100.00,NNW,335,11.0,19.0,52,0.00,,,-99.99,,2013-03-28 16:23:00,
2013-03-28 12:32:00,40.0,24.0,-100.00,WNW,300,11.0,18.0,53,0.00,,,-99.99,,2013-03-28 16:32:00,
2013-03-28 12:42:00,40.0,25.0,-100.00,WNW,300,7.0,17.0,54,0.00,,,-99.99,,2013-03-28 16:42:00,
2013-03-28 12:52:00,42.0,26.0,-100.00,NNW,335,9.0,14.0,52,0.00,,,-99.99,,2013-03-28 16:52:00,
2013-03-28 13:02:00,42.0,26.0,-100.00,WNW,290,6.0,16.0,54,0.00,,,-99.99,,2013-03-28 17:02:00,
2013-03-28 13:12:00,43.0,26.0,-100.00,WNW,300,9.0,17.0,50,0.00,,,-99.99,,2013-03-28 17:12:00,
2013-03-28 13:22:00,42.0,25.0,-100.00,WNW,290,12.0,19.0,51,0.00,,,-99.99,,2013-03-28 17:22:00,
2013-03-28 13:32:00,42.0,25.0,-100.00,WNW,300,9.0,16.0,50,0.00,,,-99.99,,2013-03-28 17:32:00,
2013-03-28 13:42:00,43.0,26.0,-100.00,WNW,290,9.0,19.0,51,0.00,,,-99.99,,2013-03-28 17:42:00,
2013-03-28 13:52:00,43.0,26.0,-100.00,WNW,290,9.0,19.0,51,0.00,,,-99.99,,2013-03-28 17:52:00,
2013-03-28 14:02:00,42.0,25.0,-100.00,NW,310,11.0,-999.0,51,0.00,,,-99.99,,2013-03-28 18:02:00,
2013-03-28 14:12:00,42.0,25.0,-100.00,NW,315,9.0,16.0,50,0.00,,,-99.99,,2013-03-28 18:12:00,
2013-03-28 14:22:00,42.0,25.0,-100.00,WNW,300,11.0,19.0,51,0.00,,,-99.99,,2013-03-28 18:22:00,
2013-03-28 14:32:00,42.0,26.0,-100.00,West,280,6.0,12.0,52,0.00,,,-99.99,,2013-03-28 18:32:00,
2013-03-28 14:42:00,42.0,26.0,-100.00,NW,320,9.0,17.0,51,0.00,,,-99.99,,2013-03-28 18:42:00,
2013-03-28 14:52:00,42.0,26.0,-100.00,NW,305,11.0,16.0,52,0.00,,,-99.99,,2013-03-28 18:52:00,
2013-03-28 15:02:00,43.0,26.0,-100.00,NNW,335,9.0,13.0,50,0.00,,,-99.99,,2013-03-28 19:02:00,
2013-03-28 15:12:00,42.0,25.0,-100.00,NW,320,9.0,16.0,50,0.00,,,-99.99,,2013-03-28 19:12:00,
2013-03-28 15:22:00,43.0,26.0,-100.00,NNW,335,9.0,14.0,50,0.00,,,-99.99,,2013-03-28 19:22:00,
2013-03-28 15:33:00,43.0,26.0,-100.00,WNW,300,7.0,16.0,49,0.00,,,-99.99,,2013-03-28 19:33:00,
2013-03-28 15:42:00,43.0,25.0,-100.00,WNW,295,9.0,16.0,48,0.00,,,-99.99,,2013-03-28 19:42:00,
2013-03-28 15:52:00,44.0,26.0,-100.00,NNW,335,13.0,22.0,50,0.00,,,-99.99,,2013-03-28 19:52:00,
2013-03-28 16:03:00,43.0,26.0,-100.00,NW,315,12.0,21.0,50,0.00,,,-99.99,,2013-03-28 20:03:00,
2013-03-28 16:12:00,44.0,26.0,-100.00,NW,305,12.0,18.0,49,0.00,,,-99.99,,2013-03-28 20:12:00,
2013-03-28 16:22:00,44.0,26.0,-100.00,NW,310,9.0,18.0,49,0.00,,,-99.99,,2013-03-28 20:22:00,
2013-03-28 16:32:00,44.0,27.0,-100.00,NW,325,12.0,19.0,50,0.00,,,-99.99,,2013-03-28 20:32:00,
2013-03-28 16:42:00,43.0,26.0,-100.00,WNW,290,7.0,19.0,49,0.00,,,-99.99,,2013-03-28 20:42:00,
2013-03-28 16:52:00,44.0,28.0,-100.00,NW,315,10.0,16.0,53,0.00,,,-99.99,,2013-03-28 20:52:00,
2013-03-28 17:02:00,44.0,26.0,-100.00,NW,315,13.0,22.0,48,0.00,,,-99.99,,2013-03-28 21:02:00,
2013-03-28 17:12:00,44.0,25.0,-100.00,WNW,295,10.0,22.0,47,0.00,,,-99.99,,2013-03-28 21:12:00,
2013-03-28 17:22:00,44.0,27.0,-100.00,NW,310,11.0,18.0,51,0.00,,,-99.99,,2013-03-28 21:22:00,
2013-03-28 17:33:00,44.0,26.0,-100.00,NW,310,11.0,19.0,49,0.00,,,-99.99,,2013-03-28 21:33:00,
2013-03-28 17:43:00,44.0,26.0,-100.00,NW,310,10.0,17.0,48,0.00,,,-99.99,,2013-03-28 21:43:00,
2013-03-28 17:53:00,44.0,26.0,-100.00,NW,320,11.0,18.0,49,0.00,,,-99.99,,2013-03-28 21:53:00,
2013-03-28 18:03:00,44.0,26.0,-100.00,NW,325,9.0,16.0,50,0.00,,,-99.99,,2013-03-28 22:03:00,
2013-03-28 18:12:00,43.0,27.0,-100.00,NW,325,12.0,16.0,51,0.00,,,-99.99,,2013-03-28 22:12:00,
2013-03-28 18:22:00,43.0,26.0,-100.00,NNW,330,9.0,16.0,50,0.00,,,-99.99,,2013-03-28 22:22:00,
2013-03-28 18:32:00,44.0,26.0,-100.00,NW,310,7.0,14.0,50,0.00,,,-99.99,,2013-03-28 22:32:00,
2013-03-28 18:42:00,43.0,28.0,-100.00,NW,305,6.0,12.0,54,0.00,,,-99.99,,2013-03-28 22:42:00,
2013-03-28 18:52:00,43.0,28.0,-100.00,NW,305,6.0,12.0,54,0.00,,,-99.99,,2013-03-28 22:52:00,
2013-03-28 19:03:00,43.0,27.0,-100.00,NW,305,9.0,18.0,53,0.00,,,-99.99,,2013-03-28 23:03:00,
2013-03-28 19:12:00,43.0,27.0,-100.00,NW,305,7.0,16.0,52,0.00,,,-99.99,,2013-03-28 23:12:00,
2013-03-28 19:22:00,43.0,28.0,-100.00,WNW,300,6.0,12.0,54,0.00,,,-99.99,,2013-03-28 23:22:00,
2013-03-28 19:32:00,43.0,27.0,-100.00,WNW,285,7.0,16.0,54,0.00,,,-99.99,,2013-03-28 23:32:00,
2013-03-28 19:42:00,43.0,27.0,-100.00,WNW,295,6.0,10.0,54,0.00,,,-99.99,,2013-03-28 23:42:00,
2013-03-28 19:52:00,42.0,28.0,-100.00,NW,305,6.0,12.0,55,0.00,,,-99.99,,2013-03-28 23:52:00,
2013-03-28 20:02:00,42.0,27.0,-100.00,WNW,290,5.0,11.0,55,0.00,,,-99.99,,2013-03-29 00:02:00,
2013-03-28 20:12:00,42.0,27.0,-100.00,West,270,4.0,9.0,55,0.00,,,-99.99,,2013-03-29 00:12:00,
2013-03-28 20:22:00,42.0,27.0,-100.00,WNW,290,4.0,9.0,56,0.00,,,-99.99,,2013-03-29 00:22:00,
2013-03-28 20:32:00,42.0,27.0,-100.00,WNW,290,3.0,6.0,56,0.00,,,-99.99,,2013-03-29 00:32:00,
2013-03-28 20:42:00,42.0,27.0,-100.00,WNW,285,3.0,5.0,56,0.00,,,-99.99,,2013-03-29 00:42:00,
2013-03-28 20:52:00,41.0,27.0,-100.00,West,270,2.0,6.0,57,0.00,,,-99.99,,2013-03-29 00:52:00,
2013-03-28 21:02:00,41.0,27.0,-100.00,West,270,2.0,5.0,57,0.00,,,-99.99,,2013-03-29 01:02:00,
2013-03-28 21:12:00,41.0,27.0,-100.00,WSW,245,4.0,6.0,58,0.00,,,-99.99,,2013-03-29 01:12:00,
2013-03-28 21:22:00,40.0,27.0,-100.00,West,265,4.0,6.0,58,0.00,,,-99.99,,2013-03-29 01:22:00,
2013-03-28 21:33:00,40.0,27.0,-100.00,West,265,4.0,6.0,58,0.00,,,-99.99,,2013-03-29 01:33:00,
2013-03-28 21:42:00,40.0,28.0,-100.00,West,270,4.0,7.0,60,0.00,,,-99.99,,2013-03-29 01:42:00,
2013-03-28 21:52:00,40.0,28.0,-100.00,West,270,5.0,7.0,60,0.00,,,-99.99,,2013-03-29 01:52:00,
2013-03-28 22:02:00,40.0,28.0,-100.00,West,275,4.0,9.0,61,0.00,,,-99.99,,2013-03-29 02:02:00,
2013-03-28 22:12:00,40.0,28.0,-100.00,WSW,255,4.0,8.0,62,0.00,,,-99.99,,2013-03-29 02:12:00,
2013-03-28 22:22:00,39.0,28.0,-100.00,West,275,4.0,9.0,62,0.00,,,-99.99,,2013-03-29 02:22:00,
2013-03-28 22:32:00,40.0,27.0,-100.00,West,275,4.0,11.0,61,0.00,,,-99.99,,2013-03-29 02:32:00,
2013-03-28 22:42:00,39.0,27.0,-100.00,West,275,4.0,9.0,62,0.00,,,-99.99,,2013-03-29 02:42:00,
2013-03-28 22:52:00,39.0,27.0,-100.00,West,270,6.0,11.0,61,0.00,,,-99.99,,2013-03-29 02:52:00,
2013-03-28 23:02:00,39.0,27.0,-100.00,West,270,4.0,10.0,61,0.00,,,-99.99,,2013-03-29 03:02:00,
2013-03-28 23:12:00,38.0,26.0,-100.00,West,280,4.0,10.0,61,0.00,,,-99.99,,2013-03-29 03:12:00,
2013-03-28 23:22:00,38.0,26.0,-100.00,West,270,4.0,8.0,62,0.00,,,-99.99,,2013-03-29 03:22:00,
2013-03-28 23:32:00,38.0,26.0,-100.00,West,270,4.0,7.0,62,0.00,,,-99.99,,2013-03-29 03:32:00,
2013-03-28 23:42:00,38.0,26.0,-100.00,West,275,4.0,7.0,62,0.00,,,-99.99,,2013-03-29 03:42:00,
2013-03-28 23:53:00,38.0,26.0,-100.00,West,275,6.0,9.0,61,0.00,,,-99.99,,2013-03-29 03:53:00,